Year,Month,Day,Hour,Minute,Value (Times are PST for temperature in C)
2014,01,20,00,00,6.80
2014,01,20,00,01,6.70
2014,01,20,00,02,6.70
2014,01,20,00,03,6.70
2014,01,20,00,04,6.70
2014,01,20,00,05,6.70
2014,01,20,00,06,6.70
2014,01,20,00,07,6.70
2014,01,20,00,08,6.70
2014,01,20,00,09,6.70
2014,01,20,00,10,6.70
2014,01,20,00,11,6.70
2014,01,20,00,12,6.70
2014,01,20,00,13,6.70
2014,01,20,00,14,6.70
2014,01,20,00,15,6.70
2014,01,20,00,16,6.70
2014,01,20,00,17,6.70
2014,01,20,00,18,6.70
2014,01,20,00,19,6.70
2014,01,20,00,20,6.70
2014,01,20,00,21,6.60
2014,01,20,00,22,6.60
2014,01,20,00,23,6.60
2014,01,20,00,24,6.60
2014,01,20,00,25,6.60
2014,01,20,00,26,6.60
2014,01,20,00,27,6.60
2014,01,20,00,28,6.60
2014,01,20,00,29,6.60
2014,01,20,00,30,6.60
2014,01,20,00,31,6.60
2014,01,20,00,32,6.60
2014,01,20,00,33,6.60
2014,01,20,00,34,6.60
2014,01,20,00,35,6.60
2014,01,20,00,36,6.60
2014,01,20,00,37,6.60
2014,01,20,00,38,6.60
2014,01,20,00,39,6.60
2014,01,20,00,40,6.60
2014,01,20,00,41,6.60
2014,01,20,00,42,6.60
2014,01,20,00,43,6.60
2014,01,20,00,44,6.60
2014,01,20,00,45,6.60
2014,01,20,00,46,6.60
2014,01,20,00,47,6.60
2014,01,20,00,48,6.60
2014,01,20,00,49,6.60
2014,01,20,00,50,6.60
2014,01,20,00,51,6.60
2014,01,20,00,52,6.60
2014,01,20,00,53,6.60
2014,01,20,00,54,6.60
2014,01,20,00,55,6.60
2014,01,20,00,56,6.60
2014,01,20,00,57,6.60
2014,01,20,00,58,6.60
2014,01,20,00,59,6.60
2014,01,20,01,00,6.60
2014,01,20,01,01,6.60
2014,01,20,01,02,6.60
2014,01,20,01,03,6.50
2014,01,20,01,04,6.50
2014,01,20,01,05,6.50
2014,01,20,01,06,6.50
2014,01,20,01,07,6.50
2014,01,20,01,08,6.50
2014,01,20,01,09,6.50
2014,01,20,01,10,6.50
2014,01,20,01,11,6.50
2014,01,20,01,12,6.50
2014,01,20,01,13,6.50
2014,01,20,01,14,6.50
2014,01,20,01,15,6.50
2014,01,20,01,16,6.50
2014,01,20,01,17,6.50
2014,01,20,01,18,6.50
2014,01,20,01,19,6.50
2014,01,20,01,20,6.50
2014,01,20,01,21,6.50
2014,01,20,01,22,6.50
2014,01,20,01,23,6.50
2014,01,20,01,24,6.50
2014,01,20,01,25,6.40
2014,01,20,01,26,6.40
2014,01,20,01,27,6.40
2014,01,20,01,28,6.40
2014,01,20,01,29,6.40
2014,01,20,01,30,6.40
2014,01,20,01,31,6.40
2014,01,20,01,32,6.40
2014,01,20,01,33,6.40
2014,01,20,01,34,6.40
2014,01,20,01,35,6.40
2014,01,20,01,36,6.40
2014,01,20,01,37,6.40
2014,01,20,01,38,6.40
2014,01,20,01,39,6.40
2014,01,20,01,40,6.40
2014,01,20,01,41,6.40
2014,01,20,01,42,6.40
2014,01,20,01,43,6.40
2014,01,20,01,44,6.40
2014,01,20,01,45,6.40
2014,01,20,01,46,6.40
2014,01,20,01,47,6.40
2014,01,20,01,48,6.40
2014,01,20,01,49,6.40
2014,01,20,01,50,6.40
2014,01,20,01,51,6.40
2014,01,20,01,52,6.40
2014,01,20,01,53,6.40
2014,01,20,01,54,6.40
2014,01,20,01,55,6.30
2014,01,20,01,56,6.30
2014,01,20,01,57,6.30
2014,01,20,01,58,6.30
2014,01,20,01,59,6.30
2014,01,20,02,00,6.30
2014,01,20,02,01,6.30
2014,01,20,02,02,6.30
2014,01,20,02,03,6.30
2014,01,20,02,04,6.30
2014,01,20,02,05,6.30
2014,01,20,02,06,6.30
2014,01,20,02,07,6.30
2014,01,20,02,08,6.30
2014,01,20,02,09,6.30
2014,01,20,02,10,6.30
2014,01,20,02,11,6.20
2014,01,20,02,12,6.20
2014,01,20,02,13,6.20
2014,01,20,02,14,6.20
2014,01,20,02,15,6.20
2014,01,20,02,16,6.20
2014,01,20,02,17,6.20
2014,01,20,02,18,6.20
2014,01,20,02,19,6.20
2014,01,20,02,20,6.20
2014,01,20,02,21,6.20
2014,01,20,02,22,6.20
2014,01,20,02,23,6.20
2014,01,20,02,24,6.10
2014,01,20,02,25,6.10
2014,01,20,02,26,6.10
2014,01,20,02,27,6.10
2014,01,20,02,28,6.10
2014,01,20,02,29,6.10
2014,01,20,02,30,6.10
2014,01,20,02,31,6.10
2014,01,20,02,32,6.10
2014,01,20,02,33,6.10
2014,01,20,02,34,6.10
2014,01,20,02,35,6.10
2014,01,20,02,36,6.00
2014,01,20,02,37,6.00
2014,01,20,02,38,6.00
2014,01,20,02,39,6.00
2014,01,20,02,40,6.00
2014,01,20,02,41,6.00
2014,01,20,02,42,6.00
2014,01,20,02,43,6.00
2014,01,20,02,44,6.00
2014,01,20,02,45,6.00
2014,01,20,02,46,6.00
2014,01,20,02,47,6.00
2014,01,20,02,48,6.00
2014,01,20,02,49,6.00
2014,01,20,02,50,6.00
2014,01,20,02,51,6.00
2014,01,20,02,52,6.00
2014,01,20,02,53,6.00
2014,01,20,02,54,5.90
2014,01,20,02,55,5.90
2014,01,20,02,56,5.90
2014,01,20,02,57,5.90
2014,01,20,02,58,5.90
2014,01,20,02,59,5.90
2014,01,20,03,00,5.90
2014,01,20,03,01,5.90
2014,01,20,03,02,5.90
2014,01,20,03,03,5.90
2014,01,20,03,04,5.90
2014,01,20,03,05,5.90
2014,01,20,03,06,5.90
2014,01,20,03,07,5.90
2014,01,20,03,08,5.90
2014,01,20,03,09,5.90
2014,01,20,03,10,5.90
2014,01,20,03,11,5.90
2014,01,20,03,12,5.90
2014,01,20,03,13,5.90
2014,01,20,03,14,5.90
2014,01,20,03,15,5.90
2014,01,20,03,16,5.90
2014,01,20,03,17,5.90
2014,01,20,03,18,5.90
2014,01,20,03,19,5.90
2014,01,20,03,20,5.90
2014,01,20,03,21,5.90
2014,01,20,03,22,5.90
2014,01,20,03,23,5.90
2014,01,20,03,24,5.90
2014,01,20,03,25,5.90
2014,01,20,03,26,5.90
2014,01,20,03,27,5.90
2014,01,20,03,28,5.90
2014,01,20,03,29,5.90
2014,01,20,03,30,5.90
2014,01,20,03,31,5.90
2014,01,20,03,32,5.90
2014,01,20,03,33,5.90
2014,01,20,03,34,5.90
2014,01,20,03,35,5.90
2014,01,20,03,36,5.90
2014,01,20,03,37,5.90
2014,01,20,03,38,5.90
2014,01,20,03,39,5.90
2014,01,20,03,40,5.90
2014,01,20,03,41,5.90
2014,01,20,03,42,5.90
2014,01,20,03,43,5.90
2014,01,20,03,44,5.90
2014,01,20,03,45,5.90
2014,01,20,03,46,5.90
2014,01,20,03,47,5.90
2014,01,20,03,48,5.90
2014,01,20,03,49,5.90
2014,01,20,03,50,5.90
2014,01,20,03,51,5.90
2014,01,20,03,52,5.90
2014,01,20,03,53,5.90
2014,01,20,03,54,5.90
2014,01,20,03,55,5.90
2014,01,20,03,56,5.90
2014,01,20,03,57,5.90
2014,01,20,03,58,5.90
2014,01,20,03,59,5.90
2014,01,20,04,00,5.90
2014,01,20,04,01,5.90
2014,01,20,04,02,5.90
2014,01,20,04,03,5.90
2014,01,20,04,04,5.90
2014,01,20,04,05,5.90
2014,01,20,04,06,5.90
2014,01,20,04,07,5.90
2014,01,20,04,08,5.90
2014,01,20,04,09,5.90
2014,01,20,04,10,5.90
2014,01,20,04,11,5.90
2014,01,20,04,12,5.90
2014,01,20,04,13,5.90
2014,01,20,04,14,5.90
2014,01,20,04,15,5.90
2014,01,20,04,16,5.90
2014,01,20,04,17,5.90
2014,01,20,04,18,5.90
2014,01,20,04,19,5.90
2014,01,20,04,20,5.90
2014,01,20,04,21,5.90
2014,01,20,04,22,5.90
2014,01,20,04,23,5.90
2014,01,20,04,24,5.90
2014,01,20,04,25,5.90
2014,01,20,04,26,5.90
2014,01,20,04,27,5.90
2014,01,20,04,28,5.90
2014,01,20,04,29,5.90
2014,01,20,04,30,5.90
2014,01,20,04,31,5.90
2014,01,20,04,32,5.90
2014,01,20,04,33,5.90
2014,01,20,04,34,5.90
2014,01,20,04,35,5.90
2014,01,20,04,36,5.90
2014,01,20,04,37,5.90
2014,01,20,04,38,5.90
2014,01,20,04,39,5.90
2014,01,20,04,40,5.90
2014,01,20,04,41,5.90
2014,01,20,04,42,5.90
2014,01,20,04,43,5.90
2014,01,20,04,44,5.90
2014,01,20,04,45,5.90
2014,01,20,04,46,5.90
2014,01,20,04,47,5.90
2014,01,20,04,48,5.90
2014,01,20,04,49,5.90
2014,01,20,04,50,5.90
2014,01,20,04,51,5.90
2014,01,20,04,52,5.90
2014,01,20,04,53,5.90
2014,01,20,04,54,5.90
2014,01,20,04,55,5.90
2014,01,20,04,56,5.90
2014,01,20,04,57,5.90
2014,01,20,04,58,5.90
2014,01,20,04,59,5.90
2014,01,20,05,00,5.90
2014,01,20,05,01,5.90
2014,01,20,05,02,5.90
2014,01,20,05,03,5.90
2014,01,20,05,04,5.90
2014,01,20,05,05,5.90
2014,01,20,05,06,5.80
2014,01,20,05,07,5.80
2014,01,20,05,08,5.80
2014,01,20,05,09,5.80
2014,01,20,05,10,5.80
2014,01,20,05,11,5.80
2014,01,20,05,12,5.80
2014,01,20,05,13,5.80
2014,01,20,05,14,5.80
2014,01,20,05,15,5.80
2014,01,20,05,16,5.80
2014,01,20,05,17,5.80
2014,01,20,05,18,5.80
2014,01,20,05,19,5.80
2014,01,20,05,20,5.80
2014,01,20,05,21,5.80
2014,01,20,05,22,5.80
2014,01,20,05,23,5.70
2014,01,20,05,24,5.70
2014,01,20,05,25,5.70
2014,01,20,05,26,5.70
2014,01,20,05,27,5.70
2014,01,20,05,28,5.70
2014,01,20,05,29,5.70
2014,01,20,05,30,5.70
2014,01,20,05,31,5.70
2014,01,20,05,32,5.70
2014,01,20,05,33,5.70
2014,01,20,05,34,5.70
2014,01,20,05,35,5.70
2014,01,20,05,36,5.70
2014,01,20,05,37,5.70
2014,01,20,05,38,5.70
2014,01,20,05,39,5.70
2014,01,20,05,40,5.60
2014,01,20,05,41,5.60
2014,01,20,05,42,5.60
2014,01,20,05,43,5.60
2014,01,20,05,44,5.60
2014,01,20,05,45,5.60
2014,01,20,05,46,5.60
2014,01,20,05,47,5.50
2014,01,20,05,48,5.50
2014,01,20,05,49,5.50
2014,01,20,05,50,5.50
2014,01,20,05,51,5.50
2014,01,20,05,52,5.50
2014,01,20,05,53,5.40
2014,01,20,05,54,5.40
2014,01,20,05,55,5.40
2014,01,20,05,56,5.40
2014,01,20,05,57,5.40
2014,01,20,05,58,5.40
2014,01,20,05,59,5.40
2014,01,20,06,00,5.40
2014,01,20,06,01,5.40
2014,01,20,06,02,5.40
2014,01,20,06,03,5.40
2014,01,20,06,04,5.40
2014,01,20,06,05,5.40
2014,01,20,06,06,5.40
2014,01,20,06,07,5.30
2014,01,20,06,08,5.30
2014,01,20,06,09,5.30
2014,01,20,06,10,5.30
2014,01,20,06,11,5.30
2014,01,20,06,12,5.30
2014,01,20,06,13,5.30
2014,01,20,06,14,5.30
2014,01,20,06,15,5.30
2014,01,20,06,16,5.30
2014,01,20,10,31,5.30
2014,01,20,10,32,5.30
2014,01,20,10,33,5.40
2014,01,20,10,34,5.40
2014,01,20,10,35,5.50
2014,01,20,10,36,5.60
2014,01,20,10,37,5.60
2014,01,20,10,38,5.70
2014,01,20,10,39,5.70
2014,01,20,10,40,5.80
2014,01,20,10,41,5.80
2014,01,20,10,42,5.80
2014,01,20,10,43,5.80
2014,01,20,10,44,5.80
2014,01,20,10,45,5.90
2014,01,20,10,46,5.90
2014,01,20,10,47,6.00
2014,01,20,10,48,6.00
2014,01,20,10,49,6.10
2014,01,20,10,50,6.10
2014,01,20,10,51,6.20
2014,01,20,10,52,6.20
2014,01,20,10,53,6.30
2014,01,20,10,54,6.30
2014,01,20,10,55,6.40
2014,01,20,10,56,6.40
2014,01,20,10,57,6.40
2014,01,20,10,58,6.40
2014,01,20,10,59,6.40
2014,01,20,11,00,6.40
2014,01,20,11,01,6.50
2014,01,20,11,02,6.50
2014,01,20,11,03,6.60
2014,01,20,11,04,6.60
2014,01,20,11,05,6.60
2014,01,20,11,06,6.60
2014,01,20,11,07,6.60
2014,01,20,11,08,6.70
2014,01,20,11,09,6.70
2014,01,20,11,10,6.70
2014,01,20,11,11,6.80
2014,01,20,11,12,6.80
2014,01,20,11,13,6.80
2014,01,20,11,14,6.90
2014,01,20,11,15,6.90
2014,01,20,11,16,6.90
2014,01,20,11,17,7.00
2014,01,20,11,18,7.10
2014,01,20,11,19,7.10
2014,01,20,11,20,7.20
2014,01,20,11,21,7.20
2014,01,20,11,22,7.20
2014,01,20,11,23,7.30
2014,01,20,11,24,7.30
2014,01,20,11,25,7.40
2014,01,20,11,26,7.40
2014,01,20,11,27,7.50
2014,01,20,11,28,7.50
2014,01,20,11,29,7.60
2014,01,20,11,30,7.60
2014,01,20,11,31,7.70
2014,01,20,11,32,7.70
2014,01,20,11,33,7.70
2014,01,20,11,34,7.70
2014,01,20,11,35,7.80
2014,01,20,11,36,7.80
2014,01,20,11,37,7.90
2014,01,20,11,38,7.90
2014,01,20,11,39,8.00
2014,01,20,11,40,8.00
2014,01,20,11,41,8.10
2014,01,20,11,42,8.10
2014,01,20,11,43,8.20
2014,01,20,11,44,8.20
2014,01,20,11,45,8.20
2014,01,20,11,46,8.20
2014,01,20,11,47,8.30
2014,01,20,11,48,8.30
2014,01,20,11,49,8.40
2014,01,20,11,50,8.40
2014,01,20,11,51,8.50
2014,01,20,11,52,8.60
2014,01,20,11,53,8.60
2014,01,20,11,54,8.60
2014,01,20,11,55,8.70
2014,01,20,11,56,8.70
2014,01,20,11,57,8.80
2014,01,20,11,58,8.80
2014,01,20,11,59,8.80
2014,01,20,12,00,8.90
2014,01,20,12,01,8.90
2014,01,20,12,02,9.00
2014,01,20,12,03,9.00
2014,01,20,12,04,9.00
2014,01,20,12,05,9.00
2014,01,20,12,06,9.00
2014,01,20,12,07,9.00
2014,01,20,12,08,9.00
2014,01,20,12,09,9.00
2014,01,20,12,10,9.00
2014,01,20,12,11,9.10
2014,01,20,12,12,9.10
2014,01,20,12,13,9.20
2014,01,20,12,14,9.20
2014,01,20,12,15,9.30
2014,01,20,12,16,9.30
2014,01,20,12,17,9.40
2014,01,20,12,18,9.50
2014,01,20,12,19,9.60
2014,01,20,12,20,9.70
2014,01,20,12,21,9.80
2014,01,20,12,22,9.90
2014,01,20,12,23,9.90
2014,01,20,12,24,10.00
2014,01,20,12,25,10.10
2014,01,20,12,26,10.10
2014,01,20,12,27,10.20
2014,01,20,12,28,10.20
2014,01,20,12,29,10.20
2014,01,20,12,30,10.20
2014,01,20,12,31,10.20
2014,01,20,12,32,10.20
2014,01,20,12,33,10.20
2014,01,20,12,34,10.20
2014,01,20,12,35,10.20
2014,01,20,12,36,10.20
2014,01,20,12,37,10.30
2014,01,20,12,38,10.30
2014,01,20,12,39,10.30
2014,01,20,12,40,10.30
2014,01,20,12,41,10.30
2014,01,20,12,42,10.30
2014,01,20,12,43,10.30
2014,01,20,12,44,10.30
2014,01,20,12,45,10.30
2014,01,20,12,46,10.40
2014,01,20,12,47,10.40
2014,01,20,12,48,10.40
2014,01,20,12,49,10.40
2014,01,20,12,50,10.50
2014,01,20,12,51,10.50
2014,01,20,12,52,10.60
2014,01,20,12,53,10.60
2014,01,20,12,54,10.60
2014,01,20,12,55,10.70
2014,01,20,12,56,10.70
2014,01,20,12,57,10.70
2014,01,20,12,58,10.60
2014,01,20,12,59,10.60
2014,01,20,13,00,10.50
2014,01,20,13,01,10.50
2014,01,20,13,02,10.60
2014,01,20,13,03,10.60
2014,01,20,13,04,10.60
2014,01,20,13,05,10.60
2014,01,20,13,06,10.70
2014,01,20,13,07,10.80
2014,01,20,13,08,10.80
2014,01,20,13,09,10.80
2014,01,20,13,10,10.80
2014,01,20,13,11,10.80
2014,01,20,13,12,10.80
2014,01,20,13,13,10.80
2014,01,20,13,14,10.80
2014,01,20,13,15,10.70
2014,01,20,13,16,10.70
2014,01,20,13,17,10.70
2014,01,20,13,18,10.70
2014,01,20,13,19,10.70
2014,01,20,13,20,10.80
2014,01,20,13,21,10.90
2014,01,20,13,22,11.00
2014,01,20,13,23,11.10
2014,01,20,13,24,11.20
2014,01,20,13,25,11.30
2014,01,20,13,26,11.40
2014,01,20,13,27,11.50
2014,01,20,13,28,11.60
2014,01,20,13,29,11.70
2014,01,20,13,30,11.70
2014,01,20,13,31,11.60
2014,01,20,13,32,11.60
2014,01,20,13,33,11.60
2014,01,20,13,34,11.60
2014,01,20,13,35,11.60
2014,01,20,13,36,11.70
2014,01,20,13,37,11.70
2014,01,20,13,38,11.70
2014,01,20,13,39,11.70
2014,01,20,13,40,11.80
2014,01,20,13,41,11.80
2014,01,20,13,42,11.70
2014,01,20,13,43,11.70
2014,01,20,13,44,11.60
2014,01,20,13,45,11.50
2014,01,20,13,46,11.50
2014,01,20,13,47,11.40
2014,01,20,13,48,11.40
2014,01,20,13,49,11.40
2014,01,20,13,50,11.40
2014,01,20,13,51,11.30
2014,01,20,13,52,11.30
2014,01,20,13,53,11.30
2014,01,20,13,54,11.20
2014,01,20,13,55,11.20
2014,01,20,13,56,11.20
2014,01,20,13,57,11.30
2014,01,20,13,58,11.30
2014,01,20,13,59,11.30
2014,01,20,14,00,11.40
2014,01,20,14,01,11.40
2014,01,20,14,02,11.50
2014,01,20,14,03,11.50
2014,01,20,14,04,11.60
2014,01,20,14,05,11.60
2014,01,20,14,06,11.60
2014,01,20,14,07,11.70
2014,01,20,14,08,11.70
2014,01,20,14,09,11.80
2014,01,20,14,10,11.80
2014,01,20,14,11,11.80
2014,01,20,14,12,11.80
2014,01,20,14,13,11.80
2014,01,20,14,14,11.70
2014,01,20,14,15,11.60
2014,01,20,14,16,11.50
2014,01,20,14,17,11.50
2014,01,20,14,18,11.40
2014,01,20,14,19,11.30
2014,01,20,14,20,11.30
2014,01,20,14,21,11.30
2014,01,20,14,22,11.30
2014,01,20,14,23,11.30
2014,01,20,14,24,11.30
2014,01,20,14,25,11.30
2014,01,20,14,26,11.20
2014,01,20,14,27,11.20
2014,01,20,14,28,11.20
2014,01,20,14,29,11.20
2014,01,20,14,30,11.10
2014,01,20,14,31,11.10
2014,01,20,14,32,11.10
2014,01,20,14,33,11.10
2014,01,20,14,34,11.10
2014,01,20,14,35,11.10
2014,01,20,14,36,11.10
2014,01,20,14,37,11.10
2014,01,20,14,38,11.10
2014,01,20,14,39,11.10
2014,01,20,14,40,11.10
2014,01,20,14,41,11.10
2014,01,20,14,42,11.10
2014,01,20,14,43,11.10
2014,01,20,14,44,11.10
2014,01,20,14,45,11.20
2014,01,20,14,46,11.20
2014,01,20,14,47,11.30
2014,01,20,14,48,11.30
2014,01,20,14,49,11.40
2014,01,20,14,50,11.40
2014,01,20,14,51,11.40
2014,01,20,14,52,11.50
2014,01,20,14,53,11.50
2014,01,20,14,54,11.60
2014,01,20,14,55,11.60
2014,01,20,14,56,11.70
2014,01,20,14,57,11.70
2014,01,20,14,58,11.80
2014,01,20,14,59,11.80
2014,01,20,15,00,11.90
2014,01,20,15,01,11.90
2014,01,20,15,02,11.90
2014,01,20,15,03,12.00
2014,01,20,15,04,12.00
2014,01,20,15,05,12.00
2014,01,20,15,06,11.90
2014,01,20,15,07,11.90
2014,01,20,15,08,11.80
2014,01,20,15,09,11.70
2014,01,20,15,10,11.60
2014,01,20,15,11,11.60
2014,01,20,15,12,11.50
2014,01,20,15,13,11.40
2014,01,20,15,14,11.40
2014,01,20,15,15,11.30
2014,01,20,15,16,11.30
2014,01,20,15,17,11.30
2014,01,20,15,18,11.30
2014,01,20,15,19,11.20
2014,01,20,15,20,11.20
2014,01,20,15,21,11.20
2014,01,20,15,22,11.20
2014,01,20,15,23,11.20
2014,01,20,15,24,11.20
2014,01,20,15,25,11.10
2014,01,20,15,26,11.10
2014,01,20,15,27,11.00
2014,01,20,15,28,11.00
2014,01,20,15,29,10.90
2014,01,20,15,30,10.90
2014,01,20,15,31,10.80
2014,01,20,15,32,10.80
2014,01,20,15,33,10.80
2014,01,20,15,34,10.70
2014,01,20,15,35,10.70
2014,01,20,15,36,10.70
2014,01,20,15,37,10.60
2014,01,20,15,38,10.60
2014,01,20,15,39,10.60
2014,01,20,15,40,10.60
2014,01,20,15,41,10.60
2014,01,20,15,42,10.60
2014,01,20,15,43,10.50
2014,01,20,15,44,10.50
2014,01,20,15,45,10.50
2014,01,20,15,46,10.50
2014,01,20,15,47,10.40
2014,01,20,15,48,10.40
2014,01,20,15,49,10.40
2014,01,20,15,50,10.40
2014,01,20,15,51,10.30
2014,01,20,15,52,10.30
2014,01,20,15,53,10.30
2014,01,20,15,54,10.30
2014,01,20,15,55,10.30
2014,01,20,15,56,10.30
2014,01,20,15,57,10.30
2014,01,20,15,58,10.30
2014,01,20,15,59,10.20
2014,01,20,16,00,10.20
2014,01,20,16,01,10.20
2014,01,20,16,02,10.20
2014,01,20,16,03,10.20
2014,01,20,16,04,10.10
2014,01,20,16,05,10.10
2014,01,20,16,06,10.10
2014,01,20,16,07,10.10
2014,01,20,16,08,10.00
2014,01,20,16,09,10.00
2014,01,20,16,10,9.90
2014,01,20,16,11,9.90
2014,01,20,16,12,9.80
2014,01,20,16,13,9.80
2014,01,20,16,14,9.80
2014,01,20,16,15,9.70
2014,01,20,16,16,9.70
2014,01,20,16,17,9.60
2014,01,20,16,18,9.60
2014,01,20,16,19,9.60
2014,01,20,16,20,9.60
2014,01,20,16,21,9.50
2014,01,20,16,22,9.50
2014,01,20,16,23,9.50
2014,01,20,16,24,9.40
2014,01,20,16,25,9.40
2014,01,20,16,26,9.40
2014,01,20,16,27,9.40
2014,01,20,16,28,9.30
2014,01,20,16,29,9.30
2014,01,20,16,30,9.30
2014,01,20,16,31,9.30
2014,01,20,16,32,9.30
2014,01,20,16,33,9.30
2014,01,20,16,34,9.20
2014,01,20,16,35,9.20
2014,01,20,16,36,9.20
2014,01,20,16,37,9.20
2014,01,20,16,38,9.20
2014,01,20,16,39,9.10
2014,01,20,16,40,9.10
2014,01,20,16,41,9.10
2014,01,20,16,42,9.00
2014,01,20,16,43,9.00
2014,01,20,16,44,9.00
2014,01,20,16,45,8.90
2014,01,20,16,46,8.90
2014,01,20,16,47,8.90
2014,01,20,16,48,8.90
2014,01,20,16,49,8.80
2014,01,20,16,50,8.80
2014,01,20,16,51,8.80
2014,01,20,16,52,8.80
2014,01,20,16,53,8.70
2014,01,20,16,54,8.70
2014,01,20,16,55,8.70
2014,01,20,16,56,8.70
2014,01,20,16,57,8.60
2014,01,20,16,58,8.60
2014,01,20,16,59,8.60
2014,01,20,17,00,8.50
2014,01,20,17,01,8.40
2014,01,20,17,02,8.40
2014,01,20,17,03,8.30
2014,01,20,17,04,8.30
2014,01,20,17,05,8.20
2014,01,20,17,06,8.20
2014,01,20,17,07,8.10
2014,01,20,17,08,8.10
2014,01,20,17,09,8.00
2014,01,20,17,10,8.00
2014,01,20,17,11,7.90
2014,01,20,17,12,7.80
2014,01,20,17,13,7.80
2014,01,20,17,14,7.70
2014,01,20,17,15,7.70
2014,01,20,17,16,7.60
2014,01,20,17,17,7.60
2014,01,20,17,18,7.50
2014,01,20,17,19,7.50
2014,01,20,17,20,7.40
2014,01,20,17,21,7.40
2014,01,20,17,22,7.30
2014,01,20,17,23,7.30
2014,01,20,17,24,7.20
2014,01,20,17,25,7.20
2014,01,20,17,26,7.20
2014,01,20,17,27,7.20
2014,01,20,17,28,7.10
2014,01,20,17,29,7.10
2014,01,20,17,30,7.00
2014,01,20,17,31,7.00
2014,01,20,17,32,6.90
2014,01,20,17,33,6.90
2014,01,20,17,34,6.90
2014,01,20,17,35,6.80
2014,01,20,17,36,6.80
2014,01,20,17,37,6.80
2014,01,20,17,38,6.70
2014,01,20,17,39,6.70
2014,01,20,17,40,6.70
2014,01,20,17,41,6.70
2014,01,20,17,42,6.60
2014,01,20,17,43,6.60
2014,01,20,17,44,6.60
2014,01,20,17,45,6.50
2014,01,20,17,46,6.50
2014,01,20,17,47,6.40
2014,01,20,17,48,6.40
2014,01,20,17,49,6.40
2014,01,20,17,50,6.40
2014,01,20,17,51,6.30
2014,01,20,17,52,6.30
2014,01,20,17,53,6.30
2014,01,20,17,54,6.30
2014,01,20,17,55,6.20
2014,01,20,17,56,6.20
2014,01,20,17,57,6.20
2014,01,20,17,58,6.20
2014,01,20,17,59,6.10
2014,01,20,18,00,6.10
2014,01,20,18,01,6.10
2014,01,20,18,02,6.10
2014,01,20,18,03,6.10
2014,01,20,18,04,6.10
2014,01,20,18,05,6.00
2014,01,20,18,06,6.00
2014,01,20,18,07,6.00
2014,01,20,18,08,5.90
2014,01,20,18,09,5.90
2014,01,20,18,10,5.90
2014,01,20,18,11,5.90
2014,01,20,18,12,5.90
2014,01,20,18,13,5.90
2014,01,20,18,14,5.90
2014,01,20,18,15,5.90
2014,01,20,18,16,5.80
2014,01,20,18,17,5.80
2014,01,20,18,18,5.80
2014,01,20,18,19,5.80
2014,01,20,18,20,5.80
2014,01,20,18,21,5.80
2014,01,20,18,22,5.80
2014,01,20,18,23,5.80
2014,01,20,18,24,5.80
2014,01,20,18,25,5.70
2014,01,20,18,26,5.70
2014,01,20,18,27,5.70
2014,01,20,18,28,5.70
2014,01,20,18,29,5.70
2014,01,20,18,30,5.70
2014,01,20,18,31,5.70
2014,01,20,18,32,5.60
2014,01,20,18,33,5.60
2014,01,20,18,34,5.60
2014,01,20,18,35,5.60
2014,01,20,18,36,5.50
2014,01,20,18,37,5.50
2014,01,20,18,38,5.50
2014,01,20,18,39,5.50
2014,01,20,18,40,5.40
2014,01,20,18,41,5.40
2014,01,20,18,42,5.30
2014,01,20,18,43,5.30
2014,01,20,18,44,5.20
2014,01,20,18,45,5.20
2014,01,20,18,46,5.20
2014,01,20,18,47,5.10
2014,01,20,18,48,5.10
2014,01,20,18,49,5.10
2014,01,20,18,50,5.00
2014,01,20,18,51,5.00
2014,01,20,18,52,4.90
2014,01,20,18,53,4.90
2014,01,20,18,54,4.90
2014,01,20,18,55,4.80
2014,01,20,18,56,4.80
2014,01,20,18,57,4.80
2014,01,20,18,58,4.80
2014,01,20,18,59,4.70
2014,01,20,19,00,4.70
2014,01,20,19,01,4.70
2014,01,20,19,02,4.70
2014,01,20,19,03,4.60
2014,01,20,19,04,4.60
2014,01,20,19,05,4.60
2014,01,20,19,06,4.60
2014,01,20,19,07,4.60
2014,01,20,19,08,4.60
2014,01,20,19,09,4.60
2014,01,20,19,10,4.50
2014,01,20,19,11,4.50
2014,01,20,19,12,4.50
2014,01,20,19,13,4.40
2014,01,20,19,14,4.40
2014,01,20,19,15,4.40
2014,01,20,19,16,4.40
2014,01,20,19,17,4.40
2014,01,20,19,18,4.40
2014,01,20,19,19,4.40
2014,01,20,19,20,4.40
2014,01,20,19,21,4.40
2014,01,20,19,22,4.40
2014,01,20,19,23,4.30
2014,01,20,19,24,4.30
2014,01,20,19,25,4.20
2014,01,20,19,26,4.20
2014,01,20,19,27,4.20
2014,01,20,19,28,4.20
2014,01,20,19,29,4.10
2014,01,20,19,30,4.10
2014,01,20,19,31,4.10
2014,01,20,19,32,4.20
2014,01,20,19,33,4.20
2014,01,20,19,34,4.20
2014,01,20,19,35,4.20
2014,01,20,19,36,4.20
2014,01,20,19,37,4.10
2014,01,20,19,38,4.10
2014,01,20,19,39,4.10
2014,01,20,19,40,4.10
2014,01,20,19,41,4.10
2014,01,20,19,42,4.10
2014,01,20,19,43,4.10
2014,01,20,19,44,4.10
2014,01,20,19,45,4.10
2014,01,20,19,46,4.10
2014,01,20,19,47,4.10
2014,01,20,19,48,4.10
2014,01,20,19,49,4.10
2014,01,20,19,50,4.10
2014,01,20,19,51,4.10
2014,01,20,19,52,4.00
2014,01,20,19,53,4.00
2014,01,20,19,54,4.00
2014,01,20,19,55,3.90
2014,01,20,19,56,3.90
2014,01,20,19,57,3.90
2014,01,20,19,58,3.80
2014,01,20,19,59,3.80
2014,01,20,20,00,3.80
2014,01,20,20,01,3.70
2014,01,20,20,02,3.70
2014,01,20,20,03,3.70
2014,01,20,20,04,3.60
2014,01,20,20,05,3.60
2014,01,20,20,06,3.60
2014,01,20,20,07,3.60
2014,01,20,20,08,3.50
2014,01,20,20,09,3.50
2014,01,20,20,10,3.50
2014,01,20,20,11,3.50
2014,01,20,20,12,3.40
2014,01,20,20,13,3.40
2014,01,20,20,14,3.40
2014,01,20,20,15,3.40
2014,01,20,20,16,3.40
2014,01,20,20,17,3.40
2014,01,20,20,18,3.30
2014,01,20,20,19,3.30
2014,01,20,20,20,3.30
2014,01,20,20,21,3.30
2014,01,20,20,22,3.30
2014,01,20,20,23,3.30
2014,01,20,20,24,3.20
2014,01,20,20,25,3.20
2014,01,20,20,26,3.20
2014,01,20,20,27,3.10
2014,01,20,20,28,3.10
2014,01,20,20,29,3.10
2014,01,20,20,30,3.00
2014,01,20,20,31,3.00
2014,01,20,20,32,3.00
2014,01,20,20,33,3.00
2014,01,20,20,34,2.90
2014,01,20,20,35,2.90
2014,01,20,20,36,2.90
2014,01,20,20,37,2.90
2014,01,20,20,38,2.90
2014,01,20,20,39,3.00
2014,01,20,20,40,3.00
2014,01,20,20,41,3.00
2014,01,20,20,42,3.00
2014,01,20,20,43,3.00
2014,01,20,20,44,3.00
2014,01,20,20,45,3.00
2014,01,20,20,46,3.00
2014,01,20,20,47,3.00
2014,01,20,20,48,2.90
2014,01,20,20,49,2.90
2014,01,20,20,50,2.90
2014,01,20,20,51,2.90
2014,01,20,20,52,2.90
2014,01,20,20,53,2.80
2014,01,20,20,54,2.80
2014,01,20,20,55,2.80
2014,01,20,20,56,2.80
2014,01,20,20,57,2.80
2014,01,20,20,58,2.80
2014,01,20,20,59,2.80
2014,01,20,21,00,2.80
2014,01,20,21,01,2.70
2014,01,20,21,02,2.70
2014,01,20,21,03,2.70
2014,01,20,21,04,2.70
2014,01,20,21,05,2.70
2014,01,20,21,06,2.70
2014,01,20,21,07,2.60
2014,01,20,21,08,2.60
2014,01,20,21,09,2.60
2014,01,20,21,10,2.50
2014,01,20,21,11,2.50
2014,01,20,21,12,2.50
2014,01,20,21,13,2.50
2014,01,20,21,14,2.50
2014,01,20,21,15,2.50
2014,01,20,21,16,2.50
2014,01,20,21,17,2.40
2014,01,20,21,18,2.50
2014,01,20,21,19,2.40
2014,01,20,21,20,2.40
2014,01,20,21,21,2.40
2014,01,20,21,22,2.40
2014,01,20,21,23,2.50
2014,01,20,21,24,2.50
2014,01,20,21,25,2.50
2014,01,20,21,26,2.50
2014,01,20,21,27,2.50
2014,01,20,21,28,2.50
2014,01,20,21,29,2.50
2014,01,20,21,30,2.50
2014,01,20,21,31,2.50
2014,01,20,21,32,2.40
2014,01,20,21,33,2.40
2014,01,20,21,34,2.40
2014,01,20,21,35,2.40
2014,01,20,21,36,2.40
2014,01,20,21,37,2.30
2014,01,20,21,38,2.30
2014,01,20,21,39,2.30
2014,01,20,21,40,2.30
2014,01,20,21,41,2.30
2014,01,20,21,42,2.30
2014,01,20,21,43,2.30
2014,01,20,21,44,2.30
2014,01,20,21,45,2.30
2014,01,20,21,46,2.30
2014,01,20,21,47,2.40
2014,01,20,21,48,2.30
2014,01,20,21,49,2.30
2014,01,20,21,50,2.30
2014,01,20,21,51,2.30
2014,01,20,21,52,2.20
2014,01,20,21,53,2.20
2014,01,20,21,54,2.10
2014,01,20,21,55,2.10
2014,01,20,21,56,2.00
2014,01,20,21,57,2.00
2014,01,20,21,58,2.00
2014,01,20,21,59,1.90
2014,01,20,22,00,1.90
2014,01,20,22,01,1.90
2014,01,20,22,02,1.90
2014,01,20,22,03,1.90
2014,01,20,22,04,1.90
2014,01,20,22,05,1.90
2014,01,20,22,06,1.90
2014,01,20,22,07,1.90
2014,01,20,22,08,1.90
2014,01,20,22,09,1.90
2014,01,20,22,10,1.90